Simultaneous Nadir Overpasses (SNOs) Predictions

Prediction of SNOs between GOES-17 and METOP-B Satellite Orbit:

Table of predicted SNOs for the next 14.0 days since TLE Epoch: 7/27/2024
Index Date Time (GOES-17) GOES-17 Lat,Lon METOP-B Lat,Lon Distance(km) Time Diff (sec)
1 07/27/2024 16:24:20 0.00,-104.73 0.16,-105.58 96.32 80
2 07/28/2024 16:01:03 -0.00,-104.73 -0.94,-100.60 471.20 80
3 07/30/2024 04:22:46 -0.00,-104.70 -0.11,-105.21 58.93 80
4 08/01/2024 16:21:04 0.00,-104.73 0.01,-104.83 10.96 80
5 08/04/2024 04:16:50 -0.00,-104.70 0.06,-104.47 26.82 80
6 08/05/2024 16:38:24 0.00,-104.74 0.99,-109.05 491.84 80
7 08/06/2024 16:15:06 -0.00,-104.74 -0.12,-104.07 76.09 80
8 08/08/2024 04:36:50 -0.00,-104.72 -0.89,-108.69 452.87 80
9 08/09/2024 04:13:32 0.00,-104.72 0.22,-103.71 115.09 80
